User: anonymous   Login
Location: Lawrence
(38.9720°N, 95.2350°W)
Time: 21:56:32
(UTC-05:00)
Language:

JAS-1B - Orbit

View from above orbital plane
View from above orbital plane
View from above satellite
View from above satellite

Ground track
Ground track

The orbit data is extracted from the following two-line orbital elements,

1 20480U 90013C   14297.84302676  .00000041  00000-0  15668-3 0  8832
2 20480 099.0625 236.6801 0540849 060.2171 359.7689 12.83397404157764
Epoch (UTC): 24 October 2014 20:13:57
Eccentricity: 0.0540849
inclination: 99.0625°
perigee height: 911 km
apogee height: 1744 km
right ascension of ascending node: 236.6801°
argument of perigee: 60.2171°
revolutions per day: 12.83397404
mean anomaly at epoch: 359.7689°
orbit number at epoch: 15776

The dashed part of the orbit path shows where the satellite is in the earth's shadow,  

DLR